COSMOS 2251 DEB, 35979

Orbit data source: Space-Track

COSMOS 2251 DEB, 35979 is space debris in LEO originally from a launch on Wed, 16 Jun 1993 UTC launched from the Plesetsk Missile And Space Complex (PKMTR). The debris from Iridium 33, an American commercial communications satellite, has been tracked extensively since its accidental collision with the defunct Russian satellite Cosmos 2251 in 2009. This event, occurring at high speed in low Earth orbit (LEO), generated thousands of pieces of space debris, significantly increasing the risk of further collisions. The Iridium 33 debris cloud has impacted space traffic management and orbital debris mitigation strategies, making it a subject of ongoing study in space situational awareness.

Loading next visibility...
Identifier
35979, 1993-036AVV
Orbit
LEO
Country
Flag of CISCIS
Related business
Manufacturer
Unknown
Mission
Spacecraft
Bus & Motor
Unknown
Mass
Unknown
Launch date (UTC)
1993-06-16 (33 years ago)
Launch vehicle
Unknown
Launch site
Plesetsk Missile And Space Complex (PKMTR)
Object type
Payload
Rocket body
Debris
Shape & HBR
Unknown shape, 0.1 m
Radar Cross Section
Small (<0.1 m²)

Expand to show TLE details & history
Last TLE update: 1 week ago

TLE from 1 week ago
0 COSMOS 2251 DEB
1 35979U 93036AVV 26247.79389509  .00002474  00000-0  34489-3 0  9993
2 35979  74.0067  76.6320 0057887 143.8202 228.3035 14.77161061925595
Epoch: 2026-09-04T19:03Z
TLE epoch observation values (Epoch: 2026-09-04T19:03:12.535Z)
Latitude
11.13179°
Longitude
170.13276°
Altitude
667.351 km
Speed
7.51 km/s
True Right ascension
05h 19m 23s
True Declination
11° 03' 58"
Sunlit
Object was in daylight at epoch
Visualization orbit readout
Latitude
Unknown
Longitude
Unknown
Altitude
Unknown
Speed
Unknown
Apparent Right ascension
Unknown
Apparent Declination
Unknown
Sunlit
N/A
Visualization observer readout
Local Sidereal Time
14:57:58
Azimuth
Unknown
Elevation
Unknown
Doppler factor
Unknown
Orbital elements
Apogee altitude
676.483 km
Perigee altitude
595.279 km
Semi-major axis
7,014.018 km
Eccentricity
0.00579
Inclination
74.0067°
RAAN
76.632°
Arg. of periapsis
143.8202°
True anomaly
227.81058°
Mean anomaly
228.3035°
Eccentric anomaly
228.0568°
Mean motion
3.69482 °/min
Orbital period
97.43 mins
BSTAR
0.00034489
Loading maneuver chart data...
Computing Atmospheric mass density...

Documentation

Showing up to 5 results
|